Hourly Weather Roundup
Issued by NWS Central Illinois

Home | Current Version | Previous Version | Text Only | Print | Product List | Glossary On
Versions: 1 2 3 4 5 6 7 8 9 10 11 12 13 14 15 16 17 18 19 20 21 22 23 24 25 26 27 28 29 30 31 32 33 34 35 36 37 38 39 40 41 42 43 44 45 46 47 48 49 50
000
NZUS43 KILX 272310
HWRILX

AREA WEATHER ROUNDUP
NATIONAL WEATHER SERVICE, LINCOLN IL
600 PM CDT THU AUG 27 2015


CITY           SKY/WX    TMP DP  RH WIND       PRES   REMARKS
BLOOMINGTON    MOSUNNY   75  57  53 SE5       30.13F
CHAMPAIGN      SUNNY     77  61  57 N3        30.12F
DANVILLE       SUNNY     73  61  65 CALM      30.11S HAZE
DECATUR        SUNNY     77  60  55 CALM      30.11F
EFFINGHAM      SUNNY     75  57  53 CALM      30.12F
FLORA          SUNNY     77  58  51 NW5       30.11F
GALESBURG      CLOUDY    71  59  65 E3        30.10R
JACKSONVILLE   CLOUDY    77  60  54 E5        30.09S
LACON          PTSUNNY   73  57  57 SE5       30.11S
LAWRENCEVILLE  MOSUNNY   79  56  45 CALM      30.11R HX  80
LITCHFIELD     PTSUNNY   74  58  56 E6        30.10F
$$


CITY           SKY/WX    TMP DP  RH WIND       PRES   REMARKS
LINCOLN        PTSUNNY   76  55  47 CALM      30.10F
MACOMB         CLOUDY    73  58  61 SE7       30.10S
MATTOON        SUNNY     76  57  51 S6        30.11F
MT CARMEL AP   SUNNY     77  59  53 CALM      30.11R
OLNEY-NOBLE AP MOSUNNY   75  61  60 CALM      30.11F
PARIS          SUNNY     76  63  62 CALM      30.13R
PEORIA         CLOUDY    76  57  51 SE3       30.11F
PONTIAC        SUNNY     74  62  65 SE5       30.13F
RANTOUL        SUNNY     76  59  54 CALM      30.12F
ROBINSON       SUNNY     76  60  59 CALM      30.12S
SPRINGFIELD    PTSUNNY   77  58  51 E3        30.10F
TAYLORVILLE    MOSUNNY   73  59  60 CALM      30.10S
$$

...REGIONAL REPORTS...


CITY           SKY/WX    TMP DP  RH WIND       PRES   REMARKS
CHICAGO O`HARE PTSUNNY   70  52  52 E10       30.13S
KANKAKEE       SUNNY     71  62  72 CALM      30.14S
MOLINE         CLOUDY    73  58  59 S6        30.09R
MOUNT STERLING CLOUDY    71  60  67 SE3       30.09R
MOUNT VERNON   SUNNY     79  57  47 CALM      30.12F HX  80
PITTSFIELD     CLOUDY    74  59  58 SE3       30.10S
QUINCY         CLOUDY    73  57  57 SE10      30.07S
ROCKFORD       CLOUDY    71  56  58 SE8       30.14R
$$


CITY           SKY/WX    TMP DP  RH WIND       PRES   REMARKS
BURLINGTON     CLOUDY    73  61  65 SE5       30.09R
CEDAR RAPIDS   CLOUDY    70  62  76 SW6       30.10R
DES MOINES     CLOUDY    74  60  61 SE14      30.02F
KIRKSVILLE     CLOUDY    75  60  59 S9        30.07S
OTTUMWA        CLOUDY    73  61  65 SE14      30.04F
ST LOUIS       PTSUNNY   77  55  46 SE6       30.09F
$$


CITY           SKY/WX    TMP DP  RH WIND       PRES   REMARKS
TERRE HAUTE    PTSUNNY   78  61  55 CALM      30.11S HX  80
EVANSVILLE     MOSUNNY   80  56  43 CALM      30.11S HX  80
INDIANAPOLIS   MOSUNNY   76  55  48 S6        30.10F
LAFAYETTE      CLOUDY    75  57  53 NE6       30.12R
MADISON        PTSUNNY   73  57  57 VRB7      30.10R
MILWAUKEE      PTSUNNY   68  53  58 S12       30.13R
$$




USA.gov is the U.S. government's official web portal to all federal, state and local government web resources and services.